Weather in Aurich

Germany     53°28′26″N   7°29′04″E
temp.,
°C
wind,
m/s
gust,
m/s
humid.,
%
clouds,
%
prec.,
mm/h
press.,
hPa
HPBL,
m
27 june, mon
mon2723:00+17ne3587100 0.0 1016144
02:00+17ene3682100 0.0 1015166
05:00+15n2596100 2.1 1015185
08:00+14nne4795100 3.3 1015238
11:00+16ne1188100 0.2 1015190
14:00+16ne1186100 0.3 1016268
17:00+17nne228796 1.3 1016398
20:00+15sse119695 4.8 101740
28 june, tue
tue2823:00+15n119387 1.1 101822
02:00+12wsw339414 1.7 102047
05:00+10ssw36940 0.0 102091
08:00+13ssw59900 0.0 1021314
11:00+19wsw46570 0.0 10211125
14:00+21sw234914 0.0 10211876
17:00+21ene124960 0.0 10201292
20:00+18ne46700 0.0 1020251
29 june, wed
wed2923:00+13ene46820 0.0 102077
02:00+13e48844 0.0 1019119
05:00+12e38841 0.0 1018127
08:00+17ese48750 0.0 1017258
11:00+23ese57551 0.0 1016787
14:00+26se564319 0.0 10151895
17:00+24se1258100 0.0 101448
20:00+22ene3568100 0.0 1013118
30 june, thu
thu3023:00+19e4889100 0.5 1013146
02:00+16ese499275 0.7 1013140
05:00+16se41192100 0.6 1012233
08:00+18se498484 0.9 1013319
11:00+24se55595 0.0 1012765
14:00+27sse345357 0.1 10121626
17:00+22wnw557739 0.1 1012359
20:00+23wnw337115 0.3 1010171
1 july, fri
fri123:00+16wnw4898100 7.8 1012325
02:00+15wnw3796100 15.7 1014341
05:00+14wsw4796100 0.1 1015305
08:00+14wsw4795100 0.2 1016326
11:00+15wsw4687100 0.2 1017543
14:00+18wsw4564100 0.2 10181193
17:00+18nw0266100 0.0 1019506
20:00+17wnw347891 0.1 1020574